TimeMST,TemperatureF,Dew PointF,Humidity,Sea Level PressureIn,VisibilityMPH,Wind Direction,Wind SpeedMPH,Gust SpeedMPH,PrecipitationIn,Events,Conditions,WindDirDegrees,DateUTC
12:15 AM,15.8,5.0,62,30.42,10.0,NNW,6.9,-,N/A,,Clear,330,2013-01-17 07:15:00
12:35 AM,15.8,5.0,62,30.42,10.0,NW,9.2,-,N/A,,Clear,320,2013-01-17 07:35:00
12:55 AM,15.8,5.0,62,30.43,10.0,NW,3.5,-,N/A,,Clear,310,2013-01-17 07:55:00
1:35 AM,14.0,3.2,62,30.43,10.0,Calm,Calm,-,N/A,,Clear,0,2013-01-17 08:35:00
1:55 AM,14.0,5.0,67,30.44,10.0,Calm,Calm,-,N/A,,Clear,0,2013-01-17 08:55:00
2:35 AM,14.0,5.0,67,30.44,10.0,Calm,Calm,-,N/A,,Clear,0,2013-01-17 09:35:00
2:55 AM,12.2,3.2,67,30.44,10.0,Calm,Calm,-,N/A,,Clear,0,2013-01-17 09:55:00
3:15 AM,12.2,5.0,73,30.44,10.0,Calm,Calm,-,N/A,,Clear,0,2013-01-17 10:15:00
3:35 AM,10.4,3.2,73,30.44,10.0,Calm,Calm,-,N/A,,Clear,0,2013-01-17 10:35:00
3:55 AM,12.2,5.0,73,30.44,10.0,Calm,Calm,-,N/A,,Clear,0,2013-01-17 10:55:00
4:15 AM,12.2,3.2,67,30.44,10.0,North,6.9,-,N/A,,Clear,350,2013-01-17 11:15:00
4:35 AM,12.2,3.2,67,30.44,10.0,North,8.1,-,N/A,,Clear,360,2013-01-17 11:35:00
5:50 AM,10.4,5.0,79,30.44,10.0,Calm,Calm,-,N/A,,Clear,0,2013-01-17 12:50:00
6:50 AM,12.2,5.0,73,30.46,10.0,North,5.8,-,N/A,,Clear,350,2013-01-17 13:50:00
7:50 AM,14.0,6.8,73,30.48,10.0,Calm,Calm,-,N/A,,Clear,0,2013-01-17 14:50:00
8:50 AM,24.8,8.6,50,30.50,10.0,NNE,9.2,-,N/A,,Clear,20,2013-01-17 15:50:00
9:51 AM,28.4,8.6,43,30.51,10.0,NE,11.5,-,N/A,,Clear,40,2013-01-17 16:51:00
10:50 AM,32.0,10.4,41,30.50,10.0,NNE,8.1,-,N/A,,Clear,20,2013-01-17 17:50:00
11:50 AM,35.6,10.4,35,30.47,10.0,NNE,6.9,-,N/A,,Clear,20,2013-01-17 18:50:00
12:50 PM,37.4,10.4,33,30.44,10.0,Calm,Calm,-,N/A,,Clear,0,2013-01-17 19:50:00
1:50 PM,41.0,12.2,31,30.41,10.0,Calm,Calm,-,N/A,,Clear,0,2013-01-17 20:50:00
2:50 PM,42.8,12.2,29,30.40,10.0,Calm,Calm,-,N/A,,Clear,0,2013-01-17 21:50:00
3:50 PM,44.6,10.4,25,30.40,10.0,South,8.1,-,N/A,,Clear,170,2013-01-17 22:50:00
4:50 PM,41.0,10.4,29,30.40,10.0,Calm,Calm,-,N/A,,Clear,0,2013-01-17 23:50:00
5:50 PM,33.8,8.6,35,30.41,10.0,Calm,Calm,-,N/A,,Clear,0,2013-01-18 00:50:00
6:50 PM,26.6,5.0,40,30.42,10.0,Calm,Calm,-,N/A,,Clear,0,2013-01-18 01:50:00
10:15 PM,19.4,1.4,46,30.41,10.0,Calm,Calm,-,N/A,,Clear,0,2013-01-18 05:15:00
10:35 PM,15.8,1.4,53,30.41,10.0,Calm,Calm,-,N/A,,Clear,0,2013-01-18 05:35:00
10:55 PM,17.6,1.4,49,30.41,10.0,Calm,Calm,-,N/A,,Clear,0,2013-01-18 05:55:00
11:15 PM,17.6,1.4,49,30.41,10.0,Calm,Calm,-,N/A,,Clear,0,2013-01-18 06:15:00
11:35 PM,17.6,3.2,53,30.40,10.0,Calm,Calm,-,N/A,,Clear,0,2013-01-18 06:35:00
11:55 PM,17.6,3.2,53,30.40,10.0,Calm,Calm,-,N/A,,Clear,0,2013-01-18 06:55:00